Weather History for Molokai, HI

Change the Weather History Date:

Saturday, March 9, 2013

  Actual Average Record
Temperature  
Mean Temperature 70 °F -  
Max Temperature 75 °F 78 °F 86 °F (1977)
Min Temperature 66 °F 64 °F 51 °F (1987)
Cooling Degree Days 6    
Growing Degree Days 20 (Base 50)    
Moisture  
Dew Point 64 °F    
Average Humidity 79    
Maximum Humidity 88    
Minimum Humidity 65    
Precipitation  
Precipitation 0.12 in - - ()
Sea Level Pressure  
Sea Level Pressure 29.94 in    
Wind  
Wind Speed 13 mph (SSE)    
Max Wind Speed 21 mph    
Max Gust Speed 32 mph    
Visibility 10 miles    
Events Rain    
Averages and records for this station are not official NWS values.
T = Trace of Precipitation, MM = Missing Value Source: NWS Daily Summary

Daily Weather History Graph

Daily Weather History Graph

Search for Another Location

Airport:

Trip Planner

Search our weather history database for the weather conditions in past years. The results will help you decide how hot, cold, wet, or windy it might be!

Date:

Astronomy

Mar. 09, 2013 Rise Set
Actual Time 6:41 AM HST 6:35 PM HST
Civil Twilight 6:19 AM HST 6:58 PM HST
Nautical Twilight 5:53 AM HST 7:23 PM HST
Astronomical Twilight 5:28 AM HST 7:49 PM HST
Moon 5:01 AM HST (3/9) 4:58 PM HST (3/9)
Length of Visible Light 12h 38m
Length of Day
11h 54m
Waning Crescent, 4% of the Moon is Illuminated
Mar 9
Waning Crescent
Mar 11
New
Mar 19
First Quarter
Mar 26
Full
Apr 2
Last Quarter

Hourly Weather History & Observations

Time (HST) Temp. Dew Point Humidity Pressure Visibility Wind Dir Wind Speed Gust Speed Precip Events Conditions
12:45 AM 71.6 °F 64.4 °F 78% 29.97 in 10.0 mi SE 11.5 mph - N/A   Overcast
12:54 AM 72.0 °F 64.0 °F 76% 29.97 in 10.0 mi SE 12.7 mph - N/A   Overcast
1:04 AM 71.6 °F 64.4 °F 78% 29.96 in 10.0 mi SSE 13.8 mph - 0.00 in Rain Light Rain
1:18 AM 71.6 °F 64.4 °F 78% 29.96 in 10.0 mi SSE 12.7 mph 18.4 mph 0.00 in   Overcast
1:54 AM 72.0 °F 64.0 °F 76% 29.95 in 10.0 mi SSE 10.4 mph - 0.00 in   Mostly Cloudy
2:54 AM 72.0 °F 64.9 °F 78% 29.93 in 10.0 mi South 11.5 mph - N/A   Mostly Cloudy
3:54 AM 71.1 °F 64.0 °F 78% 29.91 in 10.0 mi SSE 15.0 mph - N/A   Overcast
4:31 AM 69.8 °F 66.2 °F 88% 29.90 in 10.0 mi SSE 11.5 mph - 0.02 in   Mostly Cloudy
4:54 AM 70.0 °F 64.9 °F 84% 29.91 in 10.0 mi SSE 11.5 mph - 0.02 in   Mostly Cloudy
5:15 AM 69.8 °F 64.4 °F 83% 29.90 in 10.0 mi SSE 12.7 mph 20.7 mph N/A   Overcast
5:49 AM 71.6 °F 64.4 °F 78% 29.90 in 10.0 mi SSE 12.7 mph 19.6 mph N/A   Mostly Cloudy
5:54 AM 71.1 °F 64.9 °F 81% 29.91 in 10.0 mi SSE 11.5 mph 19.6 mph N/A   Mostly Cloudy
6:30 AM 68.0 °F 64.4 °F 88% 29.93 in 5.0 mi SSW 11.5 mph - 0.03 in Rain Rain
6:47 AM 66.2 °F 62.6 °F 88% 29.92 in 10.0 mi SW 6.9 mph - 0.04 in   Scattered Clouds
6:54 AM 66.9 °F 62.1 °F 84% 29.94 in 10.0 mi South 8.1 mph - 0.04 in   Scattered Clouds
7:54 AM 69.1 °F 64.0 °F 84% 29.96 in 10.0 mi South 9.2 mph - 0.00 in   Mostly Cloudy
8:54 AM 73.0 °F 66.0 °F 79% 29.96 in 10.0 mi SSE 18.4 mph - N/A   Scattered Clouds
9:54 AM 73.9 °F 64.9 °F 73% 29.98 in 10.0 mi SSE 15.0 mph - N/A   Mostly Cloudy
10:54 AM 73.9 °F 64.9 °F 73% 29.98 in 10.0 mi South 19.6 mph 25.3 mph N/A   Mostly Cloudy
11:01 AM 75.2 °F 66.2 °F 73% 29.97 in 10.0 mi South 15.0 mph 24.2 mph N/A   Overcast
11:54 AM 75.9 °F 64.9 °F 69% 29.96 in 10.0 mi SSE 19.6 mph 28.8 mph N/A   Mostly Cloudy
12:23 PM 75.2 °F 62.6 °F 65% 29.94 in 10.0 mi South 17.3 mph - N/A   Scattered Clouds
12:54 PM 75.0 °F 64.0 °F 69% 29.94 in 10.0 mi South 17.3 mph 24.2 mph N/A   Mostly Cloudy
1:54 PM 75.9 °F 64.9 °F 69% 29.91 in 10.0 mi South 20.7 mph 32.2 mph N/A   Mostly Cloudy
2:54 PM 75.0 °F 64.9 °F 71% 29.90 in 10.0 mi South 20.7 mph 27.6 mph N/A   Overcast
3:18 PM 69.8 °F 64.4 °F 83% 29.90 in 7.0 mi SSE 18.4 mph 32.2 mph 0.00 in Rain Light Rain
3:26 PM 69.8 °F 62.6 °F 78% 29.90 in 7.0 mi South 19.6 mph 31.1 mph 0.00 in Rain Light Rain
3:54 PM 70.0 °F 64.9 °F 84% 29.91 in 10.0 mi South 16.1 mph 25.3 mph 0.06 in   Mostly Cloudy
4:54 PM 71.1 °F 64.0 °F 78% 29.92 in 10.0 mi South 15.0 mph 24.2 mph N/A   Overcast
5:54 PM 71.1 °F 60.1 °F 68% 29.93 in 10.0 mi SSE 11.5 mph - N/A   Overcast
6:54 PM 71.1 °F 64.0 °F 78% 29.94 in 10.0 mi South 8.1 mph - N/A   Overcast
7:35 PM 71.6 °F 66.2 °F 83% 29.95 in 10.0 mi South 15.0 mph 20.7 mph N/A   Overcast
7:52 PM 69.8 °F 66.2 °F 88% 29.95 in 10.0 mi South 11.5 mph - N/A   Overcast
7:54 PM 70.0 °F 66.0 °F 87% 29.96 in 10.0 mi South 10.4 mph - N/A   Overcast
8:22 PM 69.8 °F 64.4 °F 83% 29.95 in 10.0 mi SE 13.8 mph - N/A   Mostly Cloudy
8:54 PM 68.0 °F 63.0 °F 84% 29.96 in 10.0 mi SE 10.4 mph - N/A   Partly Cloudy
9:54 PM 66.9 °F 60.1 °F 79% 29.97 in 10.0 mi SE 10.4 mph - N/A   Clear
10:54 PM 66.9 °F 61.0 °F 81% 29.98 in 10.0 mi SE 6.9 mph - N/A   Mostly Cloudy
11:37 PM 66.2 °F 59.0 °F 78% 29.96 in 10.0 mi ESE 9.2 mph - N/A   Mostly Cloudy
11:52 PM 66.2 °F 60.8 °F 83% 29.97 in 10.0 mi SE 8.1 mph - N/A   Overcast
11:54 PM 68.0 °F 60.1 °F 76% 29.98 in 10.0 mi SE 6.9 mph - N/A   Overcast